Retour au catalogue

NSS 806

INTELSAT 806

ActifCommunicationsGEO
NORAD 25239·PAYLOAD·🇱🇺 Luxembourg

Lancé Feb 28, 1998 depuis Cape Canaveral Space Force Station

Loading…

TLE

FraisSource: Space-Track

Époque: Sep 14, 2026, 12:27 UTC

1 25239U 98014A   26257.51880200  .00000048  00000-0  00000-0 0  9991
2 25239   7.3452  68.6307 0008554 117.3167  69.9619  0.99075306 47855

Suivez NSS 806 en temps réel avec AllMySat

Download on the App Store